, AK

(GMT )
Tin City

Weather History for PATC - June, 2013

Change the Weather History Date:

Sunday, June 2, 2013

  Actual Average Record
Temperature  
Mean Temperature 43 °F -  
Max Temperature 51 °F 39 °F 57 °F (2007)
Min Temperature 37 °F 29 °F 28 °F (2002)
Degree Days  
Heating Degree Days 22    
Moisture  
Dew Point 36 °F    
Average Humidity 73    
Maximum Humidity 85    
Minimum Humidity 60    
Precipitation  
Precipitation 0.00 in - - ()
Sea Level Pressure  
Sea Level Pressure 29.98 in    
Wind  
Wind Speed 7 mph (ESE)    
Max Wind Speed 22 mph    
Max Gust Speed -    
Visibility 10 miles    
Events      
Averages and records for this station are not official NWS values.
T = Trace of Precipitation, MM = Missing Value Source: NWS Daily Summary

Daily Weather History Graph

Daily Weather History Graph

Search for Another Location

Airport or City:

Trip Planner

Search our weather history database for the weather conditions in past years. The results will help you decide how hot, cold, wet, or windy it might be!

Date:

Astronomy

Jun. 02, 2013 Rise Set
Actual Time 4:30 AM AKDT 1:52 AM AKDT
Civil Twilight Sun does not set Sun does not set
Nautical Twilight Sun does not set Sun does not set
Astronomical Twilight Sun does not set Sun does not set
Moon 3:52 AM AKDT (6/2) 5:59 PM AKDT (6/2)
Length of Visible Light 24h 00m
Length of Day
21h 21m
Waning Crescent, 29% of the Moon is Illuminated
Jun 2
Waning Crescent
Jun 8
New
Jun 16
First Quarter
Jun 23
Full
Jun 29
Last Quarter

Hourly Weather History & Observations

Time (AKDT) Temp. Windchill Dew Point Humidity Pressure Visibility Wind Dir Wind Speed Gust Speed Precip Events Conditions
12:55 AM 41.4 °F 39.4 °F 32.7 °F 71% 30.06 in 10.0 mi South 3.5 mph - N/A   Clear
1:55 AM 41.5 °F 39.6 °F 32.7 °F 71% 30.06 in 10.0 mi South 3.5 mph - N/A   Clear
2:55 AM 38.8 °F 35.4 °F 33.1 °F 80% 30.06 in 10.0 mi SW 4.6 mph - N/A   Clear
3:55 AM 37.9 °F 34.4 °F 33.6 °F 84% 30.04 in 10.0 mi SSW 4.6 mph - N/A   Clear
4:55 AM 38.1 °F 34.6 °F 33.4 °F 83% 30.04 in 10.0 mi South 4.6 mph - N/A   Clear
5:55 AM 39.6 °F 36.3 °F 34.2 °F 81% 30.02 in 10.0 mi SSW 4.6 mph - N/A   Clear
6:55 AM 39.0 °F 35.7 °F 32.7 °F 78% 30.02 in 10.0 mi SSW 4.6 mph - N/A   Clear
7:55 AM 37.6 °F 35.1 °F 33.4 °F 85% 30.01 in 10.0 mi SSW 3.5 mph - N/A   Clear
8:55 AM 41.0 °F - 34.9 °F 79% 30.01 in 10.0 mi South 2.3 mph - N/A   Clear
9:55 AM 44.2 °F - 34.0 °F 67% 30.00 in 10.0 mi South 2.3 mph - N/A   Clear
10:55 AM 47.8 °F - 36.5 °F 65% 29.99 in 10.0 mi WSW 2.3 mph - N/A   Clear
11:55 AM 45.0 °F - 37.4 °F 75% 29.99 in 10.0 mi West 1.2 mph - N/A   Clear
12:55 PM 49.3 °F - 39.4 °F 69% 29.99 in 10.0 mi NNE 4.6 mph - N/A   Clear
1:55 PM 48.6 °F - 40.8 °F 75% 29.98 in 10.0 mi Variable 2.3 mph - N/A   Clear
2:55 PM 48.9 °F - 41.2 °F 75% 29.97 in 10.0 mi NE 9.2 mph - N/A   Clear
3:55 PM 49.5 °F - 41.0 °F 73% 29.96 in 10.0 mi NE 11.5 mph - N/A   Clear
4:55 PM 47.1 °F - 38.8 °F 73% 29.94 in 10.0 mi NE 15.0 mph - N/A   Clear
5:55 PM 45.9 °F 38.8 °F 37.4 °F 72% 29.94 in 10.0 mi NE 17.3 mph - N/A   Clear
6:55 PM 46.6 °F - 33.4 °F 60% 29.92 in 10.0 mi NE 19.6 mph - N/A   Clear
7:55 PM 46.4 °F 39.0 °F 34.9 °F 64% 29.91 in 10.0 mi NE 19.6 mph - N/A   Clear
8:55 PM 45.1 °F 36.9 °F 35.4 °F 69% 29.90 in 10.0 mi NNE 21.9 mph - N/A   Clear
9:55 PM 46.6 °F - 34.3 °F 62% 29.90 in 10.0 mi NNE 20.7 mph - N/A   Clear
10:55 PM 45.9 °F 38.0 °F 34.9 °F 66% 29.90 in 10.0 mi NNE 20.7 mph - N/A   Clear
11:55 PM 44.6 °F 36.4 °F 36.3 °F 73% 29.90 in 10.0 mi NNE 20.7 mph - N/A   Clear